"Pseudo-MPEC" for P10NAFL

Created 2019 May 21 3:07:14 UT using Find_Orb

Click here for an explanation of pseudo-MPECs

 
 Astrometry: 
     P10NAFL  C2019 05 07u5f7ECa0bfv$Astrometry-;p@redacted;loscbCclick;Ebi`CF51
     P10NAFL  C2019 05 07RUX?l8djSheretR@JV'e!1uNO8qj]Y3w:VOoiH'2,[`8U0H\O)]aF51
     P10NAFL  C2019 05 07$2j]ZS=m*1#4Zl\PtI6//(d@QI4708#/a4X[Gi_5#+KTYtjh*s,$F51
     P10NAFL  C2019 05 07$`M8x8*!l9b[0@WcUFA;qONlsqPF#.Jd5'!=tnZU$TK5r[[9v-BJF51
     P10NAFL |C2019 05 12y;A)by7f=]Y.^P\,dk1?pkQ\for*'iL,BA'%)ZppwvS0^7;@C%1.807
     P10NAFL |C2019 05 12x(/i3EM;hS!du(i$c_N:5'%tr@:pyXxbgAufojTHkwNakF*+\2d0807
     P10NAFL |C2019 05 12*^explanationJT^*36lTWhAXO)$HR/\C0g(FSGV7+ZlCe%3W3Ey807
     P10NAFL |C2019 05 15TKX^T6,5hoqeY8m%k:5)pOC5TWlgFv'XZ\n@K\5v!o5HNZcd==4l807
     P10NAFL |C2019 05 15`IFqohs;!sR7ArbWa8X0M'_bD#%a7rG:r?/:l%XGR0^t\Qx90.@7807
     P10NAFL |C2019 05 15G(5J.v;ZwURp?mcx%0PjIJI$f3]W4?l_'BTa?dn6);S'@=Wdf\kj807

Station data:
(807) Cerro Tololo Observatory, La Serena  (S30.169136 W70.805900)  Chile.
(F51) Pan-STARRS 1, Haleakala  (N20.707235 W156.255910)  US/Hawaii.
   Observers N. Primak, A. Schultz, S. Watters, J. Thiel, T. Goggia. Measurer
   PS1 Science Consortium. 1.8-m Ritchey-Chrétien + CCD.

Orbital elements:  P10NAFL
   Perihelion 2020 Apr 3.240677 +/- 2.77 TT =  5:46:34 (JD 2458942.740677)
Epoch 2019 May 15.0 TT = JDT 2458618.5   Earth MOID: 0.5964   Ma: 0.0178
M 211.41283433 +/- 1.3              (J2000 ecliptic)          AutoNEOCP
n   0.45826195 +/- 0.000402         Peri.  281.68765 +/- 0.9
a   1.66619892 +/- 0.000974         Node   109.74990 +/- 0.12
e   0.0793067 +/- 0.00185           Incl.   12.47129 +/- 0.041
P   2.15/785.56d           H 20.6   G  0.15   U  7.5  
q 1.53405802 +/- 0.00264    Q 1.79833981 +/- 0.00381
From 10 observations 2019 May 7-15; mean residual 0".14
Residuals in arcseconds: 
190507 F51  .02-  .03-    190512 807  .08+  .28-    190515 807  .08+  .13+    
190507 F51  .26+  .03+    190512 807  .09-  .08-    190515 807  .10+  .06-    
190507 F51  .09-  .09+    190512 807  .01+  .36+    
190507 F51  .15-  .09-    190515 807  .18-  .08-    

Ephemerides (geocentric):
Date (UTC) HH   RA              Dec         delta   r     elong  mag " sig PA
---- -- -- --  -------------   -----------  ------ ------ -----  --- ---- ---
2019 05 21 03  16 25 08.537   -00 08 37.89  .79856 1.7785 158.3 22.1 1.90 168
2019 05 21 04  16 25 05.129   -00 08 42.89  .79848 1.7785 158.3 22.1 1.92 168
2019 05 21 05  16 25 01.720   -00 08 47.93  .79840 1.7784 158.3 22.1 1.94 168
2019 05 21 06  16 24 58.309   -00 08 53.01  .79833 1.7784 158.3 22.1 1.96 168
2019 05 21 07  16 24 54.897   -00 08 58.12  .79825 1.7784 158.3 22.1 1.98 168
2019 05 21 08  16 24 51.483   -00 09 03.27  .79817 1.7784 158.3 22.1 1.99 168
2019 05 21 09  16 24 48.067   -00 09 08.46  .79810 1.7783 158.3 22.1 2.01 168
2019 05 21 10  16 24 44.650   -00 09 13.68  .79802 1.7783 158.4 22.1 2.03 168
2019 05 21 11  16 24 41.230   -00 09 18.94  .79795 1.7783 158.4 22.1 2.05 168
2019 05 21 12  16 24 37.810   -00 09 24.24  .79787 1.7783 158.4 22.1 2.07 167
2019 05 21 13  16 24 34.387   -00 09 29.57  .79780 1.7783 158.4 22.1 2.09 167
2019 05 21 14  16 24 30.963   -00 09 34.94  .79773 1.7782 158.4 22.1 2.11 167
2019 05 21 15  16 24 27.538   -00 09 40.35  .79765 1.7782 158.4 22.1 2.13 167
2019 05 21 16  16 24 24.111   -00 09 45.79  .79758 1.7782 158.4 22.1 2.14 167
2019 05 21 17  16 24 20.682   -00 09 51.27  .79751 1.7782 158.5 22.1 2.16 167
2019 05 21 18  16 24 17.252   -00 09 56.79  .79744 1.7782 158.5 22.1 2.18 167
2019 05 21 19  16 24 13.820   -00 10 02.35  .79737 1.7781 158.5 22.1 2.20 167
2019 05 21 20  16 24 10.386   -00 10 07.94  .79729 1.7781 158.5 22.1 2.22 167
2019 05 21 21  16 24 06.951   -00 10 13.57  .79722 1.7781 158.5 22.1 2.24 167
2019 05 21 22  16 24 03.515   -00 10 19.23  .79715 1.7781 158.5 22.1 2.26 167
2019 05 21 23  16 24 00.076   -00 10 24.93  .79708 1.7780 158.5 22.1 2.28 166
2019 05 22 00  16 23 56.637   -00 10 30.67  .79701 1.7780 158.6 22.1 2.30 166
2019 05 22 01  16 23 53.196   -00 10 36.45  .79694 1.7780 158.6 22.1 2.32 166
2019 05 22 02  16 23 49.753   -00 10 42.26  .79687 1.7780 158.6 22.1 2.34 166
2019 05 22 03  16 23 46.309   -00 10 48.11  .79680 1.7780 158.6 22.1 2.36 166
2019 05 22 04  16 23 42.863   -00 10 54.00  .79674 1.7779 158.6 22.1 2.38 166
2019 05 22 05  16 23 39.416   -00 10 59.93  .79667 1.7779 158.6 22.1 2.40 166
2019 05 22 06  16 23 35.967   -00 11 05.89  .79660 1.7779 158.6 22.1 2.42 166
2019 05 22 07  16 23 32.517   -00 11 11.89  .79653 1.7779 158.6 22.1 2.44 166
2019 05 22 08  16 23 29.065   -00 11 17.92  .79647 1.7778 158.7 22.1 2.46 166
2019 05 22 09  16 23 25.612   -00 11 23.99  .79640 1.7778 158.7 22.1 2.48 166
2019 05 22 10  16 23 22.158   -00 11 30.10  .79633 1.7778 158.7 22.1 2.50 165
2019 05 22 11  16 23 18.702   -00 11 36.25  .79627 1.7778 158.7 22.1 2.52 165
2019 05 22 12  16 23 15.245   -00 11 42.44  .79620 1.7778 158.7 22.1 2.54 165
2019 05 22 13  16 23 11.786   -00 11 48.66  .79613 1.7777 158.7 22.1 2.56 165
2019 05 22 14  16 23 08.326   -00 11 54.92  .79607 1.7777 158.7 22.1 2.59 165
2019 05 22 15  16 23 04.864   -00 12 01.21  .79601 1.7777 158.7 22.1 2.61 165
2019 05 22 16  16 23 01.401   -00 12 07.55  .79594 1.7777 158.7 22.1 2.63 165
2019 05 22 17  16 22 57.937   -00 12 13.92  .79588 1.7776 158.8 22.1 2.65 165
2019 05 22 18  16 22 54.471   -00 12 20.32  .79581 1.7776 158.8 22.1 2.67 165
2019 05 22 19  16 22 51.004   -00 12 26.77  .79575 1.7776 158.8 22.1 2.69 165
2019 05 22 20  16 22 47.536   -00 12 33.25  .79569 1.7776 158.8 22.1 2.71 165
2019 05 22 21  16 22 44.066   -00 12 39.77  .79563 1.7776 158.8 22.1 2.73 164
2019 05 22 22  16 22 40.595   -00 12 46.33  .79556 1.7775 158.8 22.1 2.76 164
2019 05 22 23  16 22 37.122   -00 12 52.92  .79550 1.7775 158.8 22.1 2.78 164
2019 05 23 00  16 22 33.648   -00 12 59.55  .79544 1.7775 158.8 22.1 2.80 164
2019 05 23 01  16 22 30.173   -00 13 06.22  .79538 1.7775 158.8 22.1 2.82 164
2019 05 23 02  16 22 26.697   -00 13 12.93  .79532 1.7774 158.9 22.1 2.84 164